Regional Weather Roundup
Issued by NWS

Home | Current Version | Previous Version | Text Only | Print | Product List | Glossary On
Versions: 1 2 3 4 5 6 7 8 9 10 11 12 13 14 15 16 17 18 19 20 21 22 23 24 25 26 27 28 29 30 31 32 33 34 35 36 37 38 39 40 41 42 43 44 45 46 47 48 49 50
000
ASUS45 KCYS 290210
RWRWY

WYOMING REGIONAL WEATHER ROUNDUP
NATIONAL WEATHER SERVICE CHEYENNE WY
700 PM MST SUN DEC 28 2014

NOTE:  "FAIR" INDICATES FEW OR NO CLOUDS BELOW 12,000 FEET
WITH NO SIGNIFICANT WEATHER AND/OR OBSTRUCTIONS TO VISIBILITY.

WYZ001-290300-
YELLOWSTONE NATIONAL PARK

CITY           SKY/WX    TMP DP  RH WIND       PRES   REMARKS
LK YELLOWSTONE   N/A     11   6  81 CALM      29.89R
W YELLOWSTONE  NOT AVBL

$$
WYZ002>013-054>058-071-098>099-290300-
NORTHERN WYOMING

CITY           SKY/WX    TMP DP  RH WIND       PRES   REMARKS
JACKSON        NOT AVBL
CODY           CLOUDY    18  14  86 N14G23    30.01R WCI   4
GREYBULL       CLOUDY    14  12  92 S3        30.03R
WORLAND        LGT SNOW  12   8  84 NW3       30.02R FOG
SHERIDAN       LGT SNOW  22  18  85 NW20      30.05R FOG     WCI   7
BUFFALO        LGT SNOW  19  17  92 N25G36    29.96R FOG     WCI   1
GILLETTE       LGT SNOW  21  18  88 N7        29.97R FOG     WCI  12
HULETT           N/A    N/A N/A N/A MISG        N/A
NEWCASTLE      FAIR      19  16  86 NW5       29.98R WCI  13

$$
WYZ014>020-022>026-101>103-290300-
CENTRAL WYOMING

CITY           SKY/WX    TMP DP  RH WIND       PRES   REMARKS
BIG PINEY      FAIR      -3  -7  82 E9        29.92R WCI -19
PINEDALE       FAIR       0  -4  85 N6        29.91R WCI -12
DUBOIS         NOT AVBL
LANDER         CLOUDY    11   4  73 SE6       29.94R WCI   1
RIVERTON       MOCLDY    12   8  84 SW10      29.95R WCI  -1
CASPER         LGT SNOW  19  15  84 NW5       29.91R FOG     WCI  12
DOUGLAS        LGT SNOW  22  19  89 N9        29.93R VSB 1   WCI  12

$$
WYZ021-027>030-104>119-290300-
SOUTHERN WYOMING

CITY           SKY/WX    TMP DP  RH WIND       PRES   REMARKS
EVANSTON       MOCLDY    13   9  84 SW7       29.95R WCI   3
FORT BRIDGER   CLOUDY    18  16  92 SW14G20   29.96S WCI   4
ROCK SPRINGS   CLOUDY    15   8  73 W14       29.93R WCI   0
DIXON          MOCLDY    21  17  83 W6        29.96R WCI  13
RAWLINS        LGT SNOW  17  11  77 W17       29.88R WCI   1
SARATOGA       FAIR      18  12  79 W17       29.89R WCI   2
LARAMIE        MOCLDY    13   7  77 W13       29.83R WCI  -2
CHEYENNE       FAIR      22   9  57 CALM      29.86R
TORRINGTON     FAIR      22  14  71 N9        29.93R WCI  12
PINE BLUFFS    CLOUDY    21  14  73 SW3       29.91R

$$



USA.gov is the U.S. government's official web portal to all federal, state and local government web resources and services.